EZY79JA EGKK-LDSP

Flight info

Callsign EZY79JA
Flight time 2h 2m
Altitude 37000
Route ODVIK Y311 DVR UL9 KONAN DCT KOK DCT SISGA DCT KOMOB DCT PITES DCT KRH DCT UTABA DCT BEMKI DCT ELMEM DCT DIRAB DCT PEVAL DCT PUL DCT SAL
Aircraft A319/M-SDE2E3FGIJ1RWXYZ/LB1

Departure

Time 2026-05-04 15:08
Airport London Gatwick Airport (EGKK)

Arrival

Time 2026-05-04 17:11
Airport Split Saint Jerome Airport (LDSP)
Time Latitude Longitude Altitude Speed Heading
2026-05-04 14:34 51.15835 -0.17631 213 ft 0 kts 347°
2026-05-04 14:55 51.15811 -0.17626 213 ft 4 kts
2026-05-04 14:56 51.15787 -0.17626 211 ft 2 kts 339°
2026-05-04 14:56 51.15765 -0.17613 213 ft 4 kts 329°
2026-05-04 14:56 51.15750 -0.17589 210 ft 4 kts 265°
2026-05-04 14:56 51.15750 -0.17582 212 ft 0 kts 257°
2026-05-04 15:00 51.15749 -0.17587 204 ft 1 kts 257°
2026-05-04 15:00 51.15745 -0.17618 211 ft 4 kts 257°
2026-05-04 15:00 51.15737 -0.17677 204 ft 7 kts 257°
2026-05-04 15:01 51.15709 -0.17878 204 ft 12 kts 257°
2026-05-04 15:01 51.15690 -0.18017 214 ft 13 kts 257°
2026-05-04 15:01 51.15669 -0.18162 205 ft 13 kts 257°
2026-05-04 15:01 51.15649 -0.18308 204 ft 14 kts 257°
2026-05-04 15:02 51.15573 -0.18341 209 ft 13 kts 166°
2026-05-04 15:02 51.15485 -0.18310 204 ft 13 kts 168°
2026-05-04 15:02 51.15394 -0.18278 204 ft 13 kts 167°
2026-05-04 15:02 51.15304 -0.18246 207 ft 13 kts 167°
2026-05-04 15:03 51.15213 -0.18226 204 ft 13 kts 197°
2026-05-04 15:03 51.15180 -0.18352 203 ft 14 kts 262°
2026-05-04 15:03 51.15160 -0.18511 212 ft 16 kts 258°
2026-05-04 15:03 51.15135 -0.18693 203 ft 18 kts 258°
2026-05-04 15:04 51.15107 -0.18896 207 ft 19 kts 257°
2026-05-04 15:04 51.15079 -0.19099 204 ft 19 kts 257°
2026-05-04 15:04 51.15051 -0.19299 206 ft 18 kts 257°
2026-05-04 15:04 51.15023 -0.19497 208 ft 18 kts 257°
2026-05-04 15:05 51.14996 -0.19692 208 ft 18 kts 257°
2026-05-04 15:05 51.14969 -0.19889 208 ft 18 kts 257°
2026-05-04 15:05 51.14941 -0.20090 211 ft 19 kts 257°
2026-05-04 15:05 51.14916 -0.20293 203 ft 19 kts 258°
2026-05-04 15:06 51.14888 -0.20495 203 ft 19 kts 257°
2026-05-04 15:06 51.14860 -0.20696 203 ft 18 kts 257°
2026-05-04 15:06 51.14831 -0.20902 204 ft 20 kts 257°
2026-05-04 15:07 51.14763 -0.21323 208 ft 20 kts 249°
2026-05-04 15:07 51.14651 -0.21352 204 ft 19 kts 158°
2026-05-04 15:07 51.14536 -0.21259 206 ft 19 kts 132°
2026-05-04 15:07 51.14539 -0.21028 214 ft 34 kts 77°
2026-05-04 15:08 51.14646 -0.20268 210 ft 104 kts 77°
2026-05-04 15:08 51.14847 -0.18841 214 ft 157 kts 76°
2026-05-04 15:08 51.15058 -0.17087 684 ft 164 kts 78°
2026-05-04 15:08 51.15295 -0.15310 1387 ft 164 kts 78°
2026-05-04 15:09 51.15557 -0.13448 1806 ft 183 kts 77°
2026-05-04 15:09 51.15847 -0.11401 2096 ft 205 kts 77°
2026-05-04 15:09 51.16172 -0.09086 2461 ft 225 kts 77°
2026-05-04 15:10 51.16874 -0.03753 3601 ft 259 kts 84°
2026-05-04 15:10 51.16856 -0.00856 4493 ft 264 kts 91°
2026-05-04 15:10 51.16743 0.05111 5840 ft 275 kts 90°
2026-05-04 15:11 51.16687 0.08165 6238 ft 278 kts 91°
2026-05-04 15:11 51.16630 0.11248 7170 ft 280 kts 91°
2026-05-04 15:11 51.16593 0.13276 7789 ft 282 kts 91°
2026-05-04 15:11 51.16569 0.16375 8641 ft 286 kts 90°
2026-05-04 15:12 51.16566 0.19564 9442 ft 294 kts 91°
2026-05-04 15:12 51.16569 0.22950 9748 ft 317 kts 90°
2026-05-04 15:12 51.16576 0.26594 10010 ft 340 kts 90°
2026-05-04 15:12 51.16585 0.30421 10556 ft 350 kts 90°
2026-05-04 15:13 51.16592 0.34322 11251 ft 354 kts 91°
2026-05-04 15:13 51.16595 0.38242 11962 ft 358 kts 91°
2026-05-04 15:13 51.16594 0.42234 12676 ft 362 kts 91°
2026-05-04 15:13 51.16593 0.46265 13384 ft 366 kts 91°
2026-05-04 15:14 51.16591 0.50340 14045 ft 370 kts 91°
2026-05-04 15:14 51.16590 0.54461 14678 ft 374 kts 91°
2026-05-04 15:14 51.16584 0.58560 15379 ft 377 kts 91°
2026-05-04 15:14 51.16578 0.62944 16106 ft 381 kts 91°
2026-05-04 15:15 51.16576 0.66713 16705 ft 384 kts 91°
2026-05-04 15:15 51.16572 0.70797 17334 ft 387 kts 91°
2026-05-04 15:15 51.16564 0.75104 17976 ft 390 kts 91°
2026-05-04 15:16 51.16535 0.83827 19101 ft 397 kts 92°
2026-05-04 15:16 51.16520 0.88039 19612 ft 401 kts 92°
2026-05-04 15:16 51.16490 0.96993 20677 ft 407 kts 92°
2026-05-04 15:17 51.16474 1.01516 21210 ft 410 kts 92°
2026-05-04 15:17 51.16428 1.10544 22188 ft 416 kts 93°
2026-05-04 15:17 51.16400 1.15145 22660 ft 419 kts 93°
2026-05-04 15:18 51.16371 1.19731 23120 ft 422 kts 93°
2026-05-04 15:18 51.16340 1.24359 23566 ft 425 kts 93°
2026-05-04 15:18 51.16305 1.29082 23944 ft 428 kts 93°
2026-05-04 15:19 51.16207 1.38611 24696 ft 432 kts 95°
2026-05-04 15:19 51.16045 1.43397 25062 ft 434 kts 96°
2026-05-04 15:19 51.15530 1.53050 25753 ft 440 kts 98°
2026-05-04 15:20 51.15245 1.57908 26135 ft 442 kts 98°
2026-05-04 15:20 51.14967 1.62800 26491 ft 444 kts 97°
2026-05-04 15:20 51.14704 1.67715 26853 ft 447 kts 97°
2026-05-04 15:20 51.14452 1.72651 27214 ft 449 kts 97°
2026-05-04 15:21 51.14207 1.77620 27553 ft 451 kts 97°
2026-05-04 15:21 51.13964 1.82608 27891 ft 453 kts 97°
2026-05-04 15:21 51.13464 1.92658 28547 ft 457 kts 97°
2026-05-04 15:22 51.13205 1.97705 28895 ft 458 kts 98°
2026-05-04 15:22 51.12940 2.02762 29218 ft 460 kts 98°
2026-05-04 15:22 51.12397 2.12940 29920 ft 462 kts 98°
2026-05-04 15:23 51.12126 2.18025 30326 ft 460 kts 98°
2026-05-04 15:23 51.11854 2.23096 30685 ft 460 kts 98°
2026-05-04 15:23 51.11579 2.28160 31026 ft 459 kts 98°
2026-05-04 15:23 51.11298 2.33220 31367 ft 459 kts 98°
2026-05-04 15:24 51.10726 2.43344 32041 ft 459 kts 99°
2026-05-04 15:24 51.10145 2.53454 32740 ft 459 kts 99°
2026-05-04 15:25 51.09853 2.58505 33082 ft 458 kts 99°
2026-05-04 15:25 51.09350 2.63478 33422 ft 453 kts 108°
2026-05-04 15:25 51.08382 2.68209 33766 ft 447 kts 117°
2026-05-04 15:26 51.05570 2.76951 34379 ft 444 kts 122°
2026-05-04 15:26 51.04128 2.81283 34668 ft 444 kts 122°
2026-05-04 15:26 51.01244 2.89963 35205 ft 444 kts 122°
2026-05-04 15:27 50.99802 2.94302 35456 ft 445 kts 122°
2026-05-04 15:27 50.96907 3.02990 35917 ft 446 kts 122°
2026-05-04 15:28 50.93995 3.11673 36365 ft 446 kts 122°
2026-05-04 15:28 50.92535 3.16009 36573 ft 446 kts 121°
2026-05-04 15:28 50.89604 3.24689 36939 ft 448 kts 121°
2026-05-04 15:29 50.88133 3.29037 36961 ft 448 kts 121°
2026-05-04 15:30 50.78278 3.58003 36975 ft 448 kts 122°
2026-05-04 15:31 50.73848 3.70933 36977 ft 448 kts 122°
2026-05-04 15:32 50.66381 3.92514 36973 ft 449 kts 122°
2026-05-04 15:34 50.58893 4.13977 36982 ft 449 kts 122°
2026-05-04 15:34 50.54323 4.26919 36984 ft 449 kts 122°
2026-05-04 15:35 50.49762 4.39784 36986 ft 449 kts 123°
2026-05-04 15:36 50.45173 4.52623 36984 ft 450 kts 123°
2026-05-04 15:36 50.42131 4.61106 36984 ft 449 kts 123°
2026-05-04 15:37 50.39049 4.69703 36973 ft 449 kts 123°
2026-05-04 15:37 50.35981 4.78226 36981 ft 449 kts 123°
2026-05-04 15:38 50.32903 4.86741 36985 ft 449 kts 123°
2026-05-04 15:38 50.29907 4.95012 36974 ft 450 kts 123°
2026-05-04 15:39 50.26814 5.03513 36978 ft 450 kts 123°
2026-05-04 15:40 50.22161 5.16257 36980 ft 450 kts 124°
2026-05-04 15:40 50.19054 5.24721 36982 ft 450 kts 124°
2026-05-04 15:41 50.15928 5.33178 36990 ft 450 kts 124°
2026-05-04 15:41 50.12816 5.41636 36989 ft 450 kts 123°
2026-05-04 15:42 50.09791 5.50174 36967 ft 450 kts 123°
2026-05-04 15:42 50.06776 5.58728 36978 ft 451 kts 123°
2026-05-04 15:43 50.03737 5.67258 36987 ft 450 kts 123°
2026-05-04 15:43 50.00680 5.75760 36997 ft 450 kts 123°
2026-05-04 15:44 49.97620 5.84241 37001 ft 450 kts 123°
2026-05-04 15:44 49.94555 5.92711 36977 ft 450 kts 124°
2026-05-04 15:45 49.91487 6.01176 36993 ft 450 kts 124°
2026-05-04 15:45 49.88405 6.09631 36999 ft 450 kts 124°
2026-05-04 15:46 49.85323 6.18074 36997 ft 450 kts 124°
2026-05-04 15:46 49.82238 6.26504 36989 ft 449 kts 124°
2026-05-04 15:47 49.79152 6.34899 36962 ft 449 kts 124°
2026-05-04 15:47 49.76057 6.43289 36981 ft 449 kts 124°
2026-05-04 15:48 49.72961 6.51662 36984 ft 449 kts 124°
2026-05-04 15:48 49.68501 6.64405 36993 ft 450 kts 122°
2026-05-04 15:49 49.65622 6.72983 36983 ft 450 kts 122°
2026-05-04 15:49 49.62795 6.81237 36962 ft 450 kts 123°
2026-05-04 15:50 49.59837 6.89741 36975 ft 450 kts 123°
2026-05-04 15:50 49.56887 6.98194 36981 ft 451 kts 123°
2026-05-04 15:51 49.53933 7.06647 36991 ft 451 kts 123°
2026-05-04 15:51 49.51106 7.14727 36997 ft 451 kts 123°
2026-05-04 15:52 49.48211 7.22983 36986 ft 451 kts 123°
2026-05-04 15:52 49.45193 7.31535 36996 ft 451 kts 123°
2026-05-04 15:53 49.42198 7.40013 37003 ft 451 kts 123°
2026-05-04 15:53 49.39359 7.48013 37006 ft 451 kts 123°
2026-05-04 15:54 49.36351 7.56460 36986 ft 451 kts 123°
2026-05-04 15:54 49.33339 7.64901 36966 ft 451 kts 123°
2026-05-04 15:55 49.30399 7.73127 36972 ft 452 kts 123°
2026-05-04 15:55 49.27394 7.81509 36978 ft 452 kts 123°
2026-05-04 15:56 49.24336 7.89983 36975 ft 452 kts 123°
2026-05-04 15:56 49.21309 7.98341 36982 ft 451 kts 123°
2026-05-04 15:57 49.18321 8.06581 36964 ft 452 kts 123°
2026-05-04 15:57 49.15270 8.14977 36971 ft 452 kts 123°
2026-05-04 15:58 49.12261 8.23216 36973 ft 452 kts 123°
2026-05-04 15:58 49.09234 8.31477 36979 ft 452 kts 123°
2026-05-04 15:59 49.06158 8.39845 36976 ft 452 kts 123°
2026-05-04 15:59 49.03069 8.48204 36983 ft 453 kts 123°
2026-05-04 16:00 48.99864 8.56433 36985 ft 448 kts 131°
2026-05-04 16:00 48.95569 8.62917 36985 ft 438 kts 146°
2026-05-04 16:01 48.91034 8.68390 36985 ft 438 kts 146°
2026-05-04 16:01 48.86266 8.74161 36985 ft 438 kts 146°
2026-05-04 16:02 48.81510 8.79901 36961 ft 439 kts 146°
2026-05-04 16:03 48.74532 8.88251 36963 ft 440 kts 146°
2026-05-04 16:03 48.69753 8.93953 36962 ft 440 kts 146°
2026-05-04 16:04 48.64966 8.99660 36965 ft 440 kts 146°
2026-05-04 16:04 48.58091 9.07843 36968 ft 439 kts 146°
2026-05-04 16:05 48.53285 9.13542 36955 ft 439 kts 146°
2026-05-04 16:06 48.46869 9.21104 36957 ft 440 kts 146°
2026-05-04 16:07 48.36997 9.32721 36964 ft 442 kts 146°
2026-05-04 16:08 48.27332 9.44034 36960 ft 442 kts 146°
2026-05-04 16:09 48.16052 9.57749 36936 ft 444 kts 144°
2026-05-04 16:10 48.06562 9.69470 36942 ft 444 kts 144°
2026-05-04 16:11 47.97049 9.81043 36933 ft 444 kts 144°
2026-05-04 16:12 47.83506 9.97486 36962 ft 444 kts 144°
2026-05-04 16:13 47.73995 10.08949 36958 ft 444 kts 144°
2026-05-04 16:14 47.64407 10.20434 36965 ft 444 kts 144°
2026-05-04 16:16 47.52148 10.34251 36978 ft 443 kts 150°
2026-05-04 16:17 47.39273 10.46739 36991 ft 443 kts 150°
2026-05-04 16:18 47.28939 10.56708 37004 ft 445 kts 150°
2026-05-04 16:19 47.16314 10.69921 37008 ft 446 kts 147°
2026-05-04 16:20 47.03679 10.83139 37006 ft 446 kts 148°
2026-05-04 16:22 46.91014 10.96279 37056 ft 447 kts 148°
2026-05-04 16:23 46.76582 11.13499 37050 ft 451 kts 137°
2026-05-04 16:25 46.63484 11.33197 37019 ft 453 kts 137°
2026-05-04 16:26 46.48101 11.56178 37009 ft 454 kts 137°
2026-05-04 16:28 46.37067 11.72547 37090 ft 454 kts 137°
2026-05-04 16:29 46.21612 11.95317 37086 ft 454 kts 137°
2026-05-04 16:31 46.10473 12.11593 37063 ft 456 kts 137°
2026-05-04 16:32 45.97048 12.31095 37056 ft 458 kts 137°
2026-05-04 16:33 45.88111 12.43977 37053 ft 458 kts 137°
2026-05-04 16:34 45.81327 12.53736 37056 ft 459 kts 137°
2026-05-04 16:35 45.67817 12.73038 37067 ft 459 kts 137°
2026-05-04 16:36 45.60991 12.82728 37060 ft 459 kts 138°
2026-05-04 16:37 45.54221 12.92329 37066 ft 460 kts 138°
2026-05-04 16:38 45.45133 13.05143 37064 ft 459 kts 138°
2026-05-04 16:39 45.33742 13.21125 37069 ft 460 kts 138°
2026-05-04 16:40 45.24967 13.34409 37071 ft 462 kts 133°
2026-05-04 16:41 45.14467 13.51703 37079 ft 463 kts 134°
2026-05-04 16:43 45.03753 13.68744 37097 ft 464 kts 134°
2026-05-04 16:43 44.97337 13.78982 37113 ft 464 kts 134°
2026-05-04 16:45 44.84153 13.98950 37099 ft 463 kts 139°
2026-05-04 16:46 44.72330 14.14326 37071 ft 464 kts 139°
2026-05-04 16:47 44.67630 14.20589 36150 ft 465 kts 138°
2026-05-04 16:47 44.62953 14.26828 35250 ft 463 kts 138°
2026-05-04 16:48 44.55948 14.36093 33912 ft 460 kts 139°
2026-05-04 16:48 44.53615 14.39159 33417 ft 460 kts 139°
2026-05-04 16:49 44.48937 14.45297 33099 ft 463 kts 139°
2026-05-04 16:49 44.44242 14.51465 31786 ft 464 kts 139°
2026-05-04 16:50 44.39516 14.57657 30547 ft 465 kts 139°
2026-05-04 16:50 44.34839 14.63782 29261 ft 457 kts 139°
2026-05-04 16:51 44.30238 14.69783 27973 ft 448 kts 138°
2026-05-04 16:51 44.27972 14.72730 27347 ft 443 kts 138°
2026-05-04 16:51 44.23494 14.78534 26137 ft 435 kts 138°
2026-05-04 16:52 44.19104 14.84226 24967 ft 427 kts 138°
2026-05-04 16:52 44.16942 14.87027 24400 ft 423 kts 138°
2026-05-04 16:53 44.13384 14.91622 23452 ft 417 kts 138°
2026-05-04 16:53 44.07060 14.99779 21551 ft 410 kts 138°
2026-05-04 16:54 44.04972 15.02467 20943 ft 408 kts 138°
2026-05-04 16:55 43.96724 15.13054 18764 ft 397 kts 138°
2026-05-04 16:55 43.92686 15.18193 17751 ft 390 kts 139°
2026-05-04 16:56 43.88636 15.23090 16709 ft 383 kts 140°
2026-05-04 16:56 43.82662 15.30153 15289 ft 369 kts 140°
2026-05-04 16:57 43.80726 15.32454 14854 ft 365 kts 140°
2026-05-04 16:57 43.76946 15.36966 14151 ft 352 kts 140°
2026-05-04 16:58 43.71566 15.43388 13130 ft 332 kts 140°
2026-05-04 16:58 43.69853 15.45426 13092 ft 317 kts 141°
2026-05-04 16:59 43.66631 15.49250 13103 ft 300 kts 141°
2026-05-04 17:00 43.60328 15.56718 11785 ft 295 kts 141°
2026-05-04 17:00 43.55687 15.62207 10756 ft 291 kts 141°
2026-05-04 17:01 43.52635 15.65840 10051 ft 289 kts 139°
2026-05-04 17:01 43.49656 15.69537 9209 ft 287 kts 139°
2026-05-04 17:02 43.46705 15.73220 8401 ft 285 kts 139°
2026-05-04 17:02 43.43791 15.76842 7599 ft 276 kts 139°
2026-05-04 17:03 43.42387 15.78583 7211 ft 269 kts 139°
2026-05-04 17:03 43.41002 15.80299 6831 ft 268 kts 139°
2026-05-04 17:03 43.38241 15.83708 6031 ft 266 kts 139°
2026-05-04 17:04 43.35504 15.87086 5229 ft 263 kts 139°
2026-05-04 17:04 43.33154 15.90822 4429 ft 262 kts 106°
2026-05-04 17:05 43.34254 15.95138 3995 ft 242 kts 40°
2026-05-04 17:05 43.36451 15.98597 4008 ft 241 kts 52°
2026-05-04 17:06 43.38474 16.02234 4001 ft 239 kts 51°
2026-05-04 17:06 43.39491 16.04043 4010 ft 239 kts 51°
2026-05-04 17:07 43.41480 16.07585 3777 ft 228 kts 51°
2026-05-04 17:07 43.42120 16.08727 3584 ft 227 kts 51°
2026-05-04 17:07 43.43404 16.11017 3208 ft 225 kts 51°
2026-05-04 17:07 43.44362 16.12725 2908 ft 226 kts 52°
2026-05-04 17:08 43.45318 16.14433 2612 ft 225 kts 52°
2026-05-04 17:08 43.47144 16.17696 2067 ft 203 kts 52°
2026-05-04 17:08 43.47983 16.19198 1778 ft 193 kts 52°
2026-05-04 17:09 43.48774 16.20613 1524 ft 180 kts 53°
2026-05-04 17:09 43.49511 16.21933 1294 ft 167 kts 52°
2026-05-04 17:09 43.50199 16.23165 1079 ft 157 kts 52°
2026-05-04 17:10 43.51515 16.25515 612 ft 154 kts 51°
2026-05-04 17:10 43.53448 16.29007 85 ft 143 kts 52°
2026-05-04 17:11 43.53909 16.29816 72 ft 64 kts 52°
2026-05-04 17:11 43.54030 16.30039 64 ft 16 kts 53°
2026-05-04 17:11 43.53941 16.30074 64 ft 8 kts 196°
2026-05-04 17:12 43.53898 16.30036 66 ft 8 kts 226°
2026-05-04 17:12 43.53820 16.29900 68 ft 10 kts 233°
2026-05-04 17:13 43.53729 16.29871 65 ft 3 kts 114°
2026-05-04 17:14 43.53729 16.29872 65 ft 0 kts 114°
2026-05-04 17:20 43.53729 16.29873 66 ft 0 kts 114°